Flag for Mexico Weather past 2 weeks in Merida, Yucatán, Mexico

Now
84 °F

Passing clouds.


Feels Like: 91 °F
Forecast: 75 / 92 °F
Wind: 5 mph from East

Location: Aerop. Internacional Merida - Yuc

Current Time: Aug 2, 2015 at 10:47:52 PM

Latest Report: Aug 2, 2015 at 9:43 PM


Visibility: 7 mi

Pressure: 29.89 "Hg

Humidity: 70%

Dew point: 73 °F

Location of MeridaLocation

Historic Weather in Merida — Graph

°F

Merida temperature yesterday

Maximum temperature yesterday: 100 °F (at 3:40 PM)
Minimum temperature yesterday: 77 °F (at 4:51 AM)
Average temperature yesterday: 85 °F

Past Weeks' High & Low Weather Summary

 TemperatureHumidityPressure
High100 °F (Jul 24, 3:45 PM)94% (Jul 19, 5:45 AM)30.05 "Hg (Jul 19, 5:45 AM)
Low72 °F (Jul 21, 5:46 AM)27% (Jul 27, 3:46 PM)29.84 "Hg (Aug 1, 5:40 PM)
Average84 °F69%29.97 "Hg
* Reported Jul 18 9:45 PM — Aug 2 8:45 PM, Merida, Weather by CustomWeather, © 2015

Note: Actual official high and low records may vary slightly from our data, if they occured in-between our weather recording intervals... More about our weather records

Advertising

Merida weather history for previous 24 hours

 ConditionsComfort  
Time TempWeatherWind HumidityBarometerVisibility
8:45 PM
Sun, Aug 2
86 °FPassing clouds.12 mph66%29.89 "Hg7 mi
7:45 PM88 °FBroken clouds.18 mph62%29.87 "Hg7 mi
3:45 PM97 °FScattered clouds.7 mph39%29.84 "Hg7 mi
1:42 PM95 °FScattered clouds.7 mph41%29.89 "Hg7 mi
12:47 PM95 °FScattered clouds.17 mph39%29.91 "Hg7 mi
11:47 AM93 °FScattered clouds.12 mph44%29.93 "Hg7 mi
10:49 AM90 °FSunny.13 mph49%29.95 "Hg7 mi
9:45 AM88 °FSunny.12 mph62%29.95 "Hg7 mi
8:43 AM82 °FSunny.9 mph79%29.95 "Hg6 mi
7:48 AM77 °FSunny.8 mph89%29.93 "Hg6 mi
6:48 AM75 °FPassing clouds.8 mph89%29.91 "Hg7 mi
3:47 AM75 °FClear.7 mph89%29.92 "Hg7 mi
2:44 AM77 °FClear.7 mph83%29.91 "Hg7 mi
1:45 AM79 °FClear.9 mph79%29.93 "Hg7 mi
12:46 AM79 °FClear.7 mph79%29.94 "Hg7 mi
11:44 PM
Sat, Aug 1
81 °FClear.No wind89%29.96 "Hg7 mi
10:47 PM79 °FPassing clouds.3 mph89%29.95 "Hg6 mi
Weather by CustomWeather, © 2015

See weather overviewHow to use our weather pages